Weather Roundup
Issued by NWS Springfield, MO

Home | Current Version | Previous Version | Text Only | Print | Product List | Glossary On
Versions: 1 2 3 4 5 6 7 8 9 10 11 12 13 14 15 16 17 18 19 20 21 22 23 24 25 26 27 28 29 30 31 32 33 34 35 36 37 38 39 40 41 42 43 44 45 46 47 48 49 50
000
NZUS99 KSGF 252007
HRRSGF

HOURLY WEATHER
NATIONAL WEATHER SERVICE SPRINGFIELD MO
300 PM CDT THU MAY 25 2017

......SGF CWA......

CITY           SKY/WX    TMP DP  RH WIND       PRES   REMARKS
SPRINGFIELD    SUNNY     74  52  46 S10       29.70F
JOPLIN         SUNNY     79  57  46 S12       29.66F
WEST PLAINS    SUNNY     72  50  45 S9        29.76F
OSAGE BEACH    SUNNY     73  51  46 VRB5      29.71F
BRANSON        MOSUNNY   75  54  46 S6        29.74F

......SURROUNDING SGF CWA......

CITY           SKY/WX    TMP DP  RH WIND       PRES   REMARKS
CHANUTE        SUNNY     75  53  46 SE17G28   29.61F
PARSONS        CLOUDY    75  53  46 S12G21    29.61F
COFFEYVILLE    CLOUDY    76  57  51 S15G25    29.60F
EMPORIA        MOSUNNY   75  53  46 S18G25    29.57F
GROVE OK       SUNNY     79  55  44 SE12G20   29.67F
ROGERS AR      SUNNY     78  54  43 S16       29.71F
SILOAM SPRINGS SUNNY     77  54  44 S14G20    29.69F
HARRISON AR    SUNNY     77  54  44 SE8       29.73F
NEAR YELLVILLE SUNNY     75  48  38 S3        29.71F

......KANSAS AND MISSOURI......

CITY           SKY/WX    TMP DP  RH WIND       PRES   REMARKS
KANSAS CTY INT MOSUNNY   74  54  49 SE16G23   29.64F
DOWNTOWN KC    SUNNY     76  53  44 S7        29.63F
COLUMBIA       SUNNY     72  50  45 S10       29.71F
SEDALIA        SUNNY     74  54  49 S8        29.70F
ST JOSEPH      SUNNY     76  53  44 S12G22    29.62F
ST LOUIS       MOSUNNY   76  51  41 W12G17    29.72S
SPIRIT OF STL  MOSUNNY   74  50  42 SW9       29.71F
KIRKSVILLE     SUNNY     70  51  51 S8        29.70F
WICHITA        MOSUNNY   79  56  45 S18G25    29.53F
TOPEKA         SUNNY     77  54  44 SE18G24   29.59F
OLATHE         SUNNY     74  54  49 S14       29.64F

......TENNESSEE......

CITY           SKY/WX    TMP DP  RH WIND       PRES   REMARKS
MEMPHIS        MOSUNNY   75  52  44 VRB3G21   29.80F
NASHVILLE      PTSUNNY   74  52  46 W13G23    29.76R

......ARKANSAS.......

CITY           SKY/WX    TMP DP  RH WIND       PRES   REMARKS
FAYETTEVILLE   SUNNY     76  55  48 S12       29.70F
FT SMITH       SUNNY     83  51  33 VRB6      29.68F
LITTLE ROCK    MOSUNNY   78  54  43 SW12      29.77F

......OKLAHOMA.......

CITY           SKY/WX    TMP DP  RH WIND       PRES   REMARKS
TULSA          MOSUNNY   82  56  40 SE15G26   29.58F
PONCA CITY     SUNNY     82  56  40 SE25      29.53F
MCALESTER      SUNNY     83  59  44 S12G22    29.65F
OKLAHOMA CITY  MOSUNNY   83  58  42 S20G30    29.57S

......IOWA............

CITY           SKY/WX    TMP DP  RH WIND       PRES   REMARKS
DES MOINES     MOSUNNY   72  50  45 S12G20    29.65F

......ILLINOIS........

CITY           SKY/WX    TMP DP  RH WIND       PRES   REMARKS
QUINCY         MOSUNNY   69  52  54 VRB5      29.70F
CHICAGO        CLOUDY    67  54  63 N8        29.64R



USA.gov is the U.S. government's official web portal to all federal, state and local government web resources and services.